This demonstration page uses our WeatherBlox Daily Observations layout. Learn more.

Left ArrowRight Arrow

Hourly Observations for April 4, 2018

Temp ( °F °C ) Dew Point ( °F °C ) Humidity (%) Winds ( mph kmh ) Pressure ( in mb ) Visibility ( mi km ) Precip ( " mm )
12:51 am 00:51 Clear 54 12.2 18 -7.8 24 24 ESE 6 9 29.91 1013 10 16 0.00 0.00
1:51 am 01:51 Clear 53 11.7 19 -7.2 26 26 ESE 6 9 29.91 1013 10 16 0.00 0.00
2:51 am 02:51 Clear 51 10.6 18 -7.8 27 27 Calm 29.92 1013 10 16 0.00 0.00
3:51 am 03:51 Clear 49 9.4 18 -7.8 29 29 SSE 5 7 29.92 1013 10 16 0.00 0.00
4:51 am 04:51 Clear 46 7.8 17 -8.3 31 31 SSE 3 6 29.93 1014 10 16 0.00 0.00
5:51 am 05:51 Clear 46 7.8 18 -7.8 32 32 SE 5 7 29.95 1014 10 16 0.00 0.00
6:51 am 06:51 Sunny 50 10 19 -7.2 29 29 ESE 3 6 29.97 1015 10 16 0.00 0.00
7:51 am 07:51 Sunny 57 13.9 20 -6.7 24 24 SSE 5 7 29.99 1016 10 16 0.00 0.00
8:51 am 08:51 Sunny 66 18.9 22 -5.6 19 19 SSE 5 7 29.98 1015 10 16 0.00 0.00
9:51 am 09:51 Sunny 74 23.3 20 -6.7 13 13 E 5 7 29.98 1015 10 16 0.00 0.00
10:51 am 10:51 Sunny 76 24.4 19 -7.2 12 12 Calm 29.96 1015 10 16 0.00 0.00
11:51 am 11:51 Sunny 80 26.7 19 -7.2 10 10 NE 3 6 29.93 1014 10 16 0.00 0.00
12:51 pm 12:51 Sunny 81 27.2 19 -7.2 10 10 VRB 5 7 29.90 1013 10 16 0.00 0.00
1:51 pm 13:51 Sunny 82 27.8 18 -7.8 9 9 SE 5 7 29.86 1011 10 16 0.00 0.00
2:51 pm 14:51 Sunny 83 28.3 17 -8.3 8 8 S 6 9 29.84 1011 10 16 0.00 0.00
3:51 pm 15:51 Sunny 86 30 17 -8.3 8 8 VRB 6 9 29.81 1009 10 16 0.00 0.00
4:51 pm 16:51 Sunny 83 28.3 18 -7.8 9 9 WNW 10 17 29.82 1010 10 16 0.00 0.00
5:51 pm 17:51 Sunny 81 27.2 19 -7.2 10 10 NW 10 17 29.83 1010 10 16 0.00 0.00
6:51 pm 18:51 Clear 79 26.1 21 -6.1 11 11 NNW 14 22 29.82 1010 10 16 0.00 0.00
7:51 pm 19:51 Clear 75 23.9 19 -7.2 12 12 NW 13 20 29.84 1010 10 16 0.00 0.00
8:51 pm 20:51 Clear 70 21.1 19 -7.2 14 14 WNW 10 17 29.86 1011 10 16 0.00 0.00
9:51 pm 21:51 Clear 67 19.4 19 -7.2 16 16 WNW 12 19 29.87 1012 10 16 0.00 0.00
10:51 pm 22:51 Clear 66 18.9 20 -6.7 17 17 NW 10 17 29.87 1012 10 16 0.00 0.00
11:51 pm 23:51 Clear 64 17.8 20 -6.7 18 18 W 7 11 29.87 1012 10 16 0.00 0.00

Powered by AerisWeather